{"data":{"norad_id":69041,"epoch":"2026-05-25T04:50:20.069088Z","epoch_age_seconds":60855,"freshness":"FRESH","line1":"1 69041U 26101S   26145.20162117 -.00424713  00000+0 -33446-2 0  9992","line2":"2 69041  97.2846 359.9790 0001917 299.1978  60.9094 15.72579268  3028","mean_motion":15.72579268,"eccentricity":0.0001917,"inclination_deg":97.2846,"raan_deg":359.979,"arg_perigee_deg":299.1978,"mean_anomaly_deg":60.9094,"bstar":-0.0033446,"rev_number":302,"period_min":91.569310959529,"perigee_km":350.23841353788,"apogee_km":352.81856728691,"semimajor_km":6729.6654904124,"source":"CELESTRAK","updated_at":"2026-05-25T13:38:22.099544Z"}}